Voltar ao catálogo

SL-8 R/B

AtivoPO
NORAD 13917·ROCKET BODY·🇷🇺 Russia

Lançado Mar 24, 1983 de Plesetsk Cosmodrome

Loading…

Próximas Passagens (próximas 24 horas)

TLE

AtualizadoSource: Space-Track

Época: Sep 14, 2026, 23:10 UTC

1 13917U 83021B   26257.96572837  .00000006  00000-0 -90706-5 0  9998
2 13917  82.9385 257.4113 0029016 157.1158 232.1036 13.77129677184030

Acompanhe SL-8 R/B em tempo real com AllMySat

Download on the App Store